[[{"header":{"parameterUnit":"m.s-1","parameterCategory":1,"la1":30.2991,"la2":30.254,"lo1":-89.0895,"lo2":-89.0444,"dy":0.0017,"dx":0.0017,"nx":28,"ny":28,"refTime":"2024-07-07T21:00:00:Z","depth":0,"parameterNumber":2,"parameterNumberName":"U-component_of_WINDS"},"data":[0,0,0,0,0,0,0,0,0,0,0,0,0,0,0,0,0,0,0,0,0,0,0,0,0,0,0,0,0,0,0,0,0,0,0,0,0,0,0,0,0,0,0,0,0,0,0,0,0,0,0,0,0,0,0,0,0,0,-2.5007,-2.5007,0,-2.5021,-2.5021,-2.5021,-2.4999,-2.4998,-2.4997,-2.4996,-2.5012,-2.5013,-2.5014,0,0,0,0,0,0,0,0,0,0,0,0,0,-2.4963,-2.4964,-2.5007,-2.5007,-2.5007,-2.5021,-2.5021,-2.5021,-2.4999,-2.4998,-2.4997,-2.4996,-2.5012,-2.5013,-2.5014,0,0,0,0,0,0,0,0,0,0,0,0,0,-2.498,-2.4964,-2.5007,-2.4998,-2.4997,-2.5021,-2.5021,-2.5021,-2.4999,-2.4998,-2.4997,-2.4996,-2.5011,-2.5013,-2.5015,-2.5048,0,0,-2.502,-2.502,0,0,0,0,0,0,0,0,-2.4979,-2.4982,-2.4999,-2.4998,-2.4998,-2.5007,-2.5011,-2.503,-2.4999,-2.4998,-2.4996,-2.4995,-2.5011,-2.5013,-2.5018,-2.5049,-2.505,-2.502,-2.5021,-2.5022,-2.5022,0,0,0,0,0,0,0,-2.4978,-2.4981,-2.5012,-2.4999,-2.4998,-2.4994,-2.4995,-2.5015,-2.5011,-2.4998,-2.4997,-2.4999,-2.5011,-2.5017,-2.5018,-2.505,-2.502,-2.5021,-2.5022,-2.5023,-2.511,-2.5111,0,0,0,0,0,0,-2.4978,-2.498,-2.5012,-2.5013,-2.4985,-2.4995,-2.4997,-2.5005,-2.5011,-2.5011,-2.5,-2.4998,-2.5014,-2.5016,-2.5019,-2.5059,-2.5022,-2.5023,-2.5024,-2.5109,-2.511,-2.5112,0,0,0,0,0,0,-2.4977,-2.4981,-2.5011,-2.4996,-2.5,-2.4997,-2.5007,-2.5006,-2.5012,-2.5012,-2.5011,-2.5006,-2.5013,-2.5016,-2.5041,-2.5059,-2.5024,-2.5026,-2.5107,-2.5109,-2.5111,-2.5139,0,0,0,0,0,0,-2.4976,-2.4981,-2.4993,-2.4996,-2.5,-2.5033,-2.5008,-2.5007,-2.5014,-2.5012,-2.5018,-2.5018,-2.5013,-2.5039,-2.5043,-2.5061,-2.5027,-2.5106,-2.5108,-2.511,-2.5136,-2.5142,-2.5146,0,0,0,0,0,-2.4974,-2.5,-2.4993,-2.4997,-2.5016,-2.5034,-2.5036,-2.503,-2.5016,-2.5029,-2.5029,-2.5017,-2.5057,-2.5041,-2.5046,-2.5065,-2.5104,-2.5107,-2.511,-2.5134,-2.5141,-2.5146,0,0,0,0,0,0,-2.4999,-2.5001,-2.4993,-2.5021,-2.5027,-2.503,-2.5046,-2.5037,-2.5048,-2.5045,-2.5037,-2.5038,-2.5065,-2.5067,-2.505,-2.5098,-2.5078,-2.5082,-2.5095,-2.5101,-2.5106,-2.5104,-2.5028,0,0,0,0,0,-2.5008,-2.5022,-2.5023,-2.5047,-2.5051,-2.5048,-2.5056,-2.505,-2.5057,-2.506,-2.5062,-2.5069,-2.5083,-2.5092,-2.5105,-2.5137,-2.5138,-2.5152,-2.5157,-2.5161,-2.5164,-2.5182,-2.5188,-2.5121,-2.5121,-2.5121,0,0,-2.5026,-2.5028,-2.5038,-2.5052,-2.5057,-2.5072,-2.505,-2.5067,-2.5079,-2.5062,-2.5085,-2.5088,-2.5095,-2.5124,-2.5137,-2.5127,-2.5183,-2.5165,-2.5168,-2.5169,-2.5185,-2.5192,-2.5197,-2.5123,-2.5123,-2.5122,0,0,-2.5066,-2.507,-2.5091,-2.5096,-2.5103,-2.51,-2.5106,-2.511,-2.5111,-2.5134,-2.5122,-2.5136,-2.516,-2.5166,-2.5173,-2.5217,-2.5207,-2.5222,-2.5247,-2.5264,-2.5269,-2.5274,-2.529,-2.5295,-2.5225,-2.5225,-2.5225,0,-2.5088,-2.511,-2.5103,-2.5121,-2.5128,-2.5113,-2.5135,-2.514,-2.5152,-2.5157,-2.5146,-2.5176,-2.5181,-2.5211,-2.5222,-2.5227,-2.5233,-2.522,-2.5269,-2.5273,-2.5278,-2.5293,-2.5299,-2.5227,-2.5227,-2.5227,-2.5226,0,-2.5137,-2.5152,-2.5169,-2.5179,-2.5188,-2.5208,-2.5204,-2.5215,-2.5209,-2.5208,-2.5233,-2.5238,-2.5251,-2.5258,-2.5253,-2.5288,-2.5282,-2.527,-2.525,-2.5286,-2.53,-2.5306,-2.5229,-2.5229,-2.5228,-2.5228,0,0,-2.5192,-2.5199,-2.5205,-2.521,-2.5217,-2.5229,-2.5249,-2.5262,-2.5271,-2.528,-2.5297,-2.5318,-2.5307,-2.5315,-2.531,-2.5325,-2.536,-2.5312,-2.5312,-2.532,-2.54,-2.5408,-2.5415,-2.5354,-2.5355,-2.5356,-2.5399,0,-2.5233,-2.5266,-2.526,-2.5293,-2.5307,-2.5294,-2.5312,-2.5318,-2.5319,-2.5332,-2.5333,-2.5348,-2.5333,-2.5337,-2.5352,-2.5353,-2.5376,-2.535,-2.537,-2.5371,-2.5368,-2.5422,-2.5431,-2.5471,-2.5404,-2.5405,-2.5406,0,-2.5284,-2.5294,-2.5328,-2.5333,-2.5339,-2.5354,-2.5366,-2.5379,-2.5387,-2.5386,-2.5395,-2.5388,-2.5408,-2.5389,-2.5417,-2.54,-2.5408,-2.541,-2.5411,-2.5412,-2.539,-2.5424,-2.5484,-2.5489,-2.5414,-2.5414,-2.5413,0,-2.5321,-2.5343,-2.5366,-2.5371,-2.5378,-2.5389,-2.5392,-2.5399,-2.5408,-2.5419,-2.5424,-2.5438,-2.5445,-2.5456,-2.5453,-2.5439,-2.5482,-2.5462,-2.5483,-2.5483,-2.5492,-2.5491,-2.5552,-2.5498,-2.5498,-2.5497,-2.5497,0,-2.5366,-2.5388,-2.5383,-2.5397,-2.5421,-2.5415,-2.5439,-2.5441,-2.5447,-2.5462,-2.5452,-2.5467,-2.5462,-2.5476,-2.5474,-2.5499,-2.5502,-2.5502,-2.5501,-2.5503,-2.5503,-2.5508,-2.5505,-2.5499,-2.5499,-2.5498,-2.5498,0,-2.5412,-2.5409,-2.5434,-2.5438,-2.544,-2.5457,-2.5461,-2.5475,-2.5475,-2.5494,-2.5499,-2.5499,-2.5515,-2.5514,-2.5532,-2.5531,-2.5561,-2.5557,-2.5558,-2.5557,-2.5577,-2.5575,-2.5644,-2.5652,-2.5592,-2.5593,-2.5593,0,-2.5441,-2.5457,-2.5463,-2.5472,-2.5476,-2.5491,-2.5499,-2.5495,-2.5504,-2.5515,-2.5527,-2.5543,-2.5555,-2.5582,-2.5585,-2.5599,-2.5595,-2.5618,-2.5597,-2.5599,-2.5595,-2.5594,-2.5596,-2.5622,-2.5623,-2.5623,-2.5624,0,-2.5492,-2.5491,-2.5503,-2.5515,-2.5526,-2.5535,-2.5544,-2.5552,-2.5549,-2.556,-2.5577,-2.5586,-2.5605,-2.5621,-2.5635,-2.5639,-2.5631,-2.5631,-2.5636,-2.5637,-2.5637,-2.5638,-2.5569,-2.5629,-2.5628,-2.5628,-2.5628,-2.5628,-2.553,-2.5544,-2.555,-2.5565,-2.5571,-2.5579,-2.5593,-2.5594,-2.5608,-2.5623,-2.5619,-2.5638,-2.5646,-2.5664,-2.567,-2.5685,-2.5677,-2.5685,-2.5687,-2.5689,-2.5691,-2.5635,-2.5688,-2.5688,-2.5688,-2.5687,-2.5687,0,-2.5581,-2.5585,-2.5598,-2.5611,-2.5622,-2.5613,-2.5623,-2.5633,-2.565,-2.5658,-2.567,-2.569,-2.5705,-2.5709,-2.5724,-2.5735,-2.5732,-2.574,-2.5738,-2.574,-2.5698,-2.5691,-2.5742,-2.5742,-2.5742,-2.5742,-2.5742,-2.5742,-2.5609,-2.5632,-2.5631,-2.5657,-2.5661,-2.5679,-2.5685,-2.5693,-2.57,-2.5721,-2.5734,-2.5736,-2.5743,-2.5758,-2.5773,-2.5773,-2.5779,-2.5788,-2.5788,-2.5748,-2.5743,-2.5737,-2.5731,-2.579,-2.579,-2.5828,-2.5829,-2.5829]},{"header":{"parameterUnit":"m.s-1","parameterCategory":1,"la1":30.2991,"la2":30.254,"lo1":-89.0895,"lo2":-89.0444,"dy":0.0017,"dx":0.0017,"nx":28,"ny":28,"refTime":"2024-07-07T21:00:00:Z","depth":0,"parameterNumber":3,"parameterNumberName":"V-component_of_WINDS"},"data":[0,0,0,0,0,0,0,0,0,0,0,0,0,0,0,0,0,0,0,0,0,0,0,0,0,0,0,0,0,0,0,0,0,0,0,0,0,0,0,0,0,0,0,0,0,0,0,0,0,0,0,0,0,0,0,0,0,0,5.8064,5.8063,0,5.8005,5.8005,5.8004,5.7907,5.7905,5.7903,5.7901,5.7842,5.7842,5.7842,0,0,0,0,0,0,0,0,0,0,0,0,0,5.8093,5.8093,5.8064,5.8063,5.8063,5.8005,5.8005,5.8004,5.7907,5.7905,5.7903,5.7901,5.7842,5.7842,5.7842,0,0,0,0,0,0,0,0,0,0,0,0,0,5.8062,5.8093,5.8064,5.8007,5.8002,5.8006,5.8005,5.8004,5.7908,5.7905,5.7902,5.79,5.7842,5.7842,5.7842,5.7897,0,0,5.7842,5.7842,0,0,0,0,0,0,0,0,5.8064,5.8061,5.8017,5.8011,5.8005,5.7961,5.7993,5.7968,5.7908,5.7943,5.7901,5.7898,5.7884,5.788,5.7875,5.7894,5.7891,5.7842,5.7842,5.7842,5.7842,0,0,0,0,0,0,0,5.8066,5.8063,5.8041,5.8016,5.8009,5.7985,5.7978,5.7988,5.7929,5.794,5.7933,5.7927,5.788,5.7875,5.7873,5.789,5.7842,5.7842,5.7842,5.7843,5.7951,5.7953,0,0,0,0,0,0,5.8077,5.8066,5.8043,5.8039,5.8029,5.7987,5.7979,5.7978,5.7929,5.7919,5.793,5.7923,5.7876,5.7873,5.787,5.793,5.7842,5.7843,5.7843,5.7948,5.7951,5.7954,0,0,0,0,0,0,5.8078,5.8076,5.8045,5.805,5.8045,5.7989,5.7989,5.7978,5.7973,5.7921,5.791,5.7935,5.7874,5.787,5.7891,5.7927,5.7843,5.7843,5.7945,5.7949,5.7953,5.8052,0,0,0,0,0,0,5.8079,5.8077,5.8097,5.8052,5.8045,5.8066,5.7991,5.7979,5.7973,5.7964,5.7923,5.7914,5.7871,5.7891,5.7891,5.7926,5.7843,5.7941,5.7946,5.7951,5.8045,5.8059,5.8071,0,0,0,0,0,5.8081,5.8127,5.8098,5.8096,5.8069,5.8069,5.8065,5.8015,5.7977,5.7996,5.7963,5.7915,5.7923,5.7894,5.7893,5.7928,5.7938,5.7945,5.7951,5.8039,5.8056,5.807,0,0,0,0,0,0,5.8178,5.812,5.8087,5.8121,5.81,5.8052,5.8075,5.8034,5.8024,5.8016,5.7954,5.7946,5.7975,5.7953,5.7922,5.7978,5.7924,5.793,5.7991,5.8007,5.8019,5.8023,5.7843,0,0,0,0,0,5.8203,5.8208,5.8157,5.8192,5.8183,5.8132,5.813,5.8093,5.8069,5.806,5.8028,5.8008,5.8005,5.8005,5.8,5.8042,5.8031,5.8066,5.8079,5.809,5.8095,5.8116,5.813,5.7975,5.7975,5.7975,0,0,5.8256,5.8225,5.8231,5.821,5.819,5.8197,5.8125,5.8135,5.8139,5.8062,5.8079,5.8055,5.8028,5.8059,5.8071,5.8042,5.8136,5.8098,5.8107,5.8106,5.8124,5.8138,5.8152,5.7979,5.7978,5.7978,0,0,5.8354,5.8331,5.8357,5.8339,5.8309,5.8274,5.8281,5.8239,5.822,5.8237,5.8179,5.8183,5.8181,5.8163,5.8154,5.8247,5.8203,5.8248,5.8314,5.8335,5.8347,5.8357,5.839,5.8402,5.8254,5.8254,5.8254,0,5.8423,5.843,5.8376,5.8389,5.8382,5.8312,5.8338,5.8323,5.8294,5.829,5.8258,5.8253,5.823,5.8256,5.8279,5.8274,5.828,5.8251,5.835,5.836,5.8369,5.8399,5.8411,5.826,5.8259,5.8258,5.8258,0,5.8515,5.8521,5.8546,5.8519,5.8514,5.8534,5.8483,5.8485,5.8449,5.8418,5.8436,5.8406,5.8393,5.8397,5.8362,5.8418,5.8401,5.8361,5.8304,5.839,5.8417,5.8428,5.8268,5.8266,5.8264,5.8263,0,0,5.8672,5.8616,5.8626,5.8613,5.8575,5.8579,5.8596,5.8584,5.8586,5.8569,5.8581,5.8581,5.8543,5.8533,5.8495,5.8514,5.8588,5.847,5.8469,5.8492,5.8648,5.8678,5.8693,5.8559,5.8561,5.8563,5.865,0,5.8762,5.8787,5.8739,5.8776,5.878,5.8715,5.873,5.8709,5.8681,5.8681,5.8649,5.865,5.86,5.8594,5.8609,5.8576,5.8619,5.8569,5.857,5.857,5.8577,5.8707,5.8739,5.8822,5.866,5.8662,5.8664,0,5.887,5.8858,5.8895,5.8855,5.8855,5.8869,5.8854,5.8855,5.883,5.8809,5.8798,5.8754,5.8768,5.8714,5.8732,5.87,5.8697,5.8681,5.8683,5.868,5.8621,5.8707,5.8848,5.886,5.868,5.8679,5.8677,0,5.898,5.8973,5.8994,5.8985,5.894,5.8951,5.8933,5.8905,5.8901,5.8888,5.8884,5.8874,5.8868,5.886,5.8815,5.878,5.8838,5.8781,5.882,5.8821,5.8834,5.8834,5.8976,5.8835,5.8834,5.8834,5.8834,0,5.9084,5.9109,5.9042,5.9055,5.9081,5.9027,5.9054,5.9029,5.9005,5.9012,5.8956,5.8964,5.8903,5.8905,5.8869,5.8889,5.8887,5.887,5.886,5.8874,5.8876,5.8871,5.8864,5.8837,5.8837,5.8836,5.8835,0,5.9211,5.9167,5.9185,5.9141,5.9131,5.9152,5.9114,5.9125,5.9093,5.9103,5.9102,5.9053,5.9051,5.9005,5.8994,5.897,5.9005,5.8985,5.9013,5.9006,5.9048,5.9044,5.9191,5.9207,5.9057,5.9058,5.9059,0,5.928,5.9298,5.9256,5.9256,5.9241,5.9243,5.9238,5.9185,5.9183,5.9156,5.917,5.9164,5.9156,5.9157,5.912,5.9111,5.909,5.9142,5.9088,5.9102,5.909,5.9089,5.909,5.9153,5.9155,5.9156,5.9158,0,5.9407,5.9385,5.938,5.9369,5.9365,5.9353,5.9338,5.9342,5.9284,5.9284,5.9282,5.9276,5.9265,5.926,5.9244,5.9225,5.9182,5.9175,5.9183,5.9198,5.9213,5.9205,5.9043,5.9172,5.917,5.9169,5.9168,5.9168,5.9506,5.9519,5.9491,5.9488,5.9472,5.9459,5.9466,5.9436,5.9433,5.942,5.9389,5.9392,5.9366,5.9341,5.9326,5.9328,5.9301,5.9314,5.9317,5.932,5.9328,5.9214,5.9325,5.9324,5.9324,5.9324,5.9323,0,5.963,5.9609,5.9607,5.9587,5.9585,5.9545,5.9526,5.9527,5.953,5.951,5.9504,5.9502,5.9497,5.946,5.945,5.9458,5.9438,5.9458,5.9456,5.9452,5.9353,5.9346,5.9474,5.9474,5.9474,5.9474,5.9474,5.9474,5.9694,5.9713,5.9688,5.9698,5.9677,5.9679,5.9672,5.966,5.9643,5.9643,5.9639,5.9615,5.9588,5.9576,5.957,5.9559,5.9558,5.9584,5.9566,5.9474,5.9459,5.9445,5.9439,5.9584,5.9584,5.9665,5.9666,5.9667]}]]